Regional Weather Roundup
Issued by NWS

Home | Current Version | Previous Version | Text Only | Print | Product List | Glossary On
Versions: 1 2 3 4 5 6 7 8 9 10 11 12 13 14 15 16 17 18 19 20 21 22 23 24 25 26 27
000
ASUS44 KBMX 231910
RWRAL

ALABAMA REGIONAL WEATHER ROUNDUP
NATIONAL WEATHER SERVICE BIRMINGHAM AL
200 PM CDT FRI JUN 23 2017

NOTE: "FAIR" INDICATES FEW OR NO CLOUDS BELOW 12,000 FEET
WITH NO SIGNIFICANT WEATHER AND/OR OBSTRUCTIONS TO VISIBILITY.

THE REMARK "TC" DENOTES TEMPERATURE IN DEGREES CELSIUS.

ALZ001>011-014-016>018-020-232000-
NORTH ALABAMA

CITY           SKY/WX    TMP DP  RH WIND       PRES   REMARKS
MUSCLE SHOALS  LGT RAIN  76  72  87 SW15G26   29.81S
HUNTSVILLE     CLOUDY    84  76  76 S25G33    29.81F HX  93
DECATUR        PTSUNNY   85  74  69 S21G28    29.80F HX  92
HALEYVILLE     NOT AVBL
GADSDEN        PTSUNNY   87  74  64 S14G24    29.88F HX  95
$$

ALZ012-013-022-023-030>036-040>044-232000-
WEST CENTRAL ALABAMA

CITY           SKY/WX    TMP DP  RH WIND       PRES   REMARKS
TUSCALOOSA     LGT RAIN  82  79  90 S13G23    29.89R HX  92
$$

ALZ015-024>027-033>036-040>044-232000-
CENTRAL ALABAMA

CITY           SKY/WX    TMP DP  RH WIND       PRES   REMARKS
BIRMINGHAM     PTSUNNY   87  72  60 S17G26    29.90F HX  93
MONTGOMERY     MOSUNNY   91  69  48 S16G26    29.94F HX  96
SHELBY CO ARPT MOSUNNY   88  74  63 S16G25    29.90F HX  96
MAXWELL AFB    MOSUNNY   90  73  58 S12G17    29.93F HX  98
GREENVILLE     PTSUNNY   89  70  53 S10G24    29.95F HX  94
$$

ALZ019-021-028-029-037-038-045>048-232000-
EAST CENTRAL ALABAMA

CITY           SKY/WX    TMP DP  RH WIND       PRES   REMARKS
ANNISTON       PTSUNNY   86  71  60 SW14G25   29.92F HX  91
ALEXANDER CITY MOSUNNY   84  71  65 S14G22    29.96F HX  90
AUBURN         MOSUNNY   87  73  62 S18G25    29.98F HX  94
$$

ALZ051>064-232000-
SOUTHWEST ALABAMA

CITY           SKY/WX    TMP DP  RH WIND       PRES   REMARKS
MOBILE         PTSUNNY   86  75  69 S15       29.98F HX  95
BROOKLEY FIELD PTSUNNY   84  79  85 S12       29.98F HX  96
EVERGREEN      PTSUNNY   88  73  61 S16G23    29.96F HX  95
$$

ALZ049-050-065>069-232000-
SOUTHEAST ALABAMA

CITY           SKY/WX    TMP DP  RH WIND       PRES   REMARKS
DOTHAN         MOSUNNY   91  71  51 SW17G29   30.02F HX  97
OZARK          PTSUNNY   91  71  52 S17       29.98F HX  96
TROY           PTSUNNY   89  75  63 S14G20    29.98F HX  99
EUFAULA        FAIR      93  73  52 S12G20    29.95F HX 102
$$




USA.gov is the U.S. government's official web portal to all federal, state and local government web resources and services.